Location: Newark
(43.4306°N, 0.3089°E)
Time: 19:46:03
(UTC+00:00)

SR - Visible Passes

Search period start: 25 August 2019 00:00
Search period end: 04 September 2019 00:00
Orbit: 578 x 878 km, 66.7° (Epoch: 24 August)

Date Brightness Start Highest point End Pass type
(mag) Time Alt. Az. Time Alt. Az. Time Alt. Az.
25 Aug ? 19:25:56 10° NNW 19:30:47 31° NE 19:35:35 11° ESE visible
25 Aug ? 21:07:42 10° NW 21:13:07 51° WSW 21:15:01 36° SSW visible
26 Aug ? 20:17:56 10° NNW 20:23:31 88° NE 20:26:57 26° SSE visible
26 Aug ? 22:01:52 10° WNW 22:04:58 15° WSW 22:06:23 14° WSW visible
27 Aug ? 19:28:24 10° NNW 19:33:48 50° NE 19:38:58 12° SE visible
27 Aug ? 21:10:55 10° NW 21:15:41 29° WSW 21:18:23 20° SSW visible
28 Aug ? 20:20:48 10° NW 20:26:15 54° WSW 20:30:29 18° S visible
29 Aug ? 19:31:02 10° NNW 19:36:39 84° ENE 19:42:33 10° SSE visible
29 Aug ? 21:14:47 10° WNW 21:18:08 16° WSW 21:21:33 10° SW visible
30 Aug ? 20:23:57 10° NW 20:28:51 30° WSW 20:33:54 10° S visible
31 Aug ? 19:33:53 10° NW 19:39:24 57° WSW 19:45:08 10° SSE visible
01 Sep ? 20:27:45 10° WNW 20:31:19 17° WSW 20:34:57 10° SW visible
02 Sep ? 19:37:01 10° NW 19:42:00 32° WSW 19:47:09 10° S visible
